Other Public Products
Issued by NWS Grand Forks, ND

Home | Current Version | Previous Version | Text Only | Print | Product List | Glossary Off
Versions: 1 2 3 4 5 6 7 8 9 10 11 12 13 14 15 16 17 18 19 20 21 22 23 24 25 26 27 28 29 30 31 32 33 34 35 36 37 38 39 40 41 42 43 44 45 46 47 48 49 50

000
FPUS83 KFGF 031631
OPUFGF
PRAIRIE TO PINES WEATHER ROUNDUP
NATIONAL WEATHER SERVICE EASTERN NORTH DAKOTA/GRAND FORKS ND
1100 AM CDT THU SEP 03 2015

 **SATELLITE DATA USED TO AUGMENT SKY COVER AT AUTOMATED STATIONS**
 *****  WEATHER ACROSS EASTERN NORTH DAKOTA  *****

CITY           SKY/WX    TMP DP  RH WIND       PRES   REMARKS
GRAND FORKS    CLOUDY    77  70  79 S17G30    29.76F
GRAND FORKS AF CLOUDY    75  70  83 S20G25    29.76S
GRAND CITY NWS   N/A     77 N/A N/A SE22        N/A
BUXTON         NOT AVBL
DEVILS LAKE    CLOUDY    73  64  73 SE15G22   29.73R
FARGO          SUNNY     81  71  71 SE17G28   29.79S
WAHPETON ARPT  MOSUNNY   79  68  69 S18G26    29.82F
$$

 *****  WEATHER ACROSS CENTRAL AND WESTERN NORTH DAKOTA  *****

CITY           SKY/WX    TMP DP  RH WIND       PRES   REMARKS
JAMESTOWN      SUNNY     80  70  71 S14       29.74S
BISMARCK       MOSUNNY   82  65  56 S8        29.70S
MINOT          MOSUNNY   78  68  71 SE14      29.66F
MINOT AFB      PTSUNNY   78  77  96 SE10      29.65S
GARRISON         N/A     78  67  68 S10       29.68S
WILLISTON      MOSUNNY   76  59  55 NE10      29.68F
DICKINSON      SUNNY     83  47  28 W6        29.69R
HETTINGER      MOSUNNY   83  48  29 SW7       29.74R
$$

 *****  OTHER OBSERVATIONS NORTHEAST NORTH DAKOTA  *****

CITY           SKY/WX    TMP DP  RH WIND       PRES   REMARKS
WALHALLA       FAIR      72  72 100 MISG      29.74S
LANGDON        CLOUDY    75  72  88 S18       29.76S
CAVALIER       CLOUDY    73  70  88 S17       29.75S FOG
GRAFTON        CLOUDY    77  72  83 S18G24    29.76F
CANDO          CLOUDY    75  70  83 SE17G23   29.73S
FORT TOTTEN    NOT AVBL
ROLLA          CLOUDY    73  70  88 S15G21    29.75S
RUGBY          FAIR      81  72  74 SE12G18   29.69F
 ***** THE ABOVE OBSERVATIONS ARE NON NWS ARE NOT QUALITY
        CONTROLLED AND MAY MIS-REPORT RAIN FOR SNOW...
$$

 *****  OTHER OBSERVATIONS SOUTHEAST NORTH DAKOTA *****

CITY           SKY/WX    TMP DP  RH WIND       PRES   REMARKS
COOPERSTOWN    NOT AVBL
VALLEY CITY    CLOUDY    77  77 100 SE15G25   29.78S
OAKES            N/A     84  81  89 SE13G21   29.78S HX  98
GWINNER          N/A     81  81 100 SE14      29.79S HX  91
BUFFALO        NOT AVBL
WYNDMERE         N/A     75  72  88 SE13        N/A
 ***** THE ABOVE OBSERVATIONS ARE NON NWS ARE NOT QUALITY
       CONTROLLED AND MAY MIS-REPORT RAIN FOR SNOW...
$$

  *****  WEATHER ACROSS NORTHERN MINNESOTA  *****

CITY           SKY/WX    TMP DP  RH WIND       PRES   REMARKS
FLAG ISLAND    CLOUDY    68  64  88 S17       29.87S
WARROAD        CLOUDY    72  66  83 SE13      29.87S
ROSEAU         PTSUNNY   73  68  83 SE15      29.85S
HALLOCK        MOSUNNY   82  72  69 S23       29.76S
THF RVR FALLS  SUNNY     81  70  69 SE18      29.82S
HALSTAD        NOT AVBL
FOSSTON        SUNNY     81  66  61 SE16      29.84F
BAUDETTE       CLOUDY    70  64  81 SE15G21   29.89F
WASKISH        SUNNY     75  68  78 SE15      29.90S
CROOKSTON      SUNNY     82  72  69 S22       29.79F
$$
  *****  WEATHER ACROSS CENTRAL AND WEST MINNESOTA  *****

CITY           SKY/WX    TMP DP  RH WIND       PRES   REMARKS
BEMIDJI        MOSUNNY   75  66  72 SE14G22   29.90F
PARK RAPIDS    PTSUNNY   78  67  68 SE12      29.90F
WADENA         CLOUDY    73  70  88 SE16      29.90S
DETROIT LAKES  MOSUNNY   77  70  78 SE16      29.88R
MOORHEAD       SUNNY     81  72  74 S20G26    29.81R
FERGUS FALLS   SUNNY     81  72  74 SE14G20   29.84R
ELBOW LAKE     FAIR      76  71  83 SE14G21   29.85F
MORRIS MN      PTSUNNY   75  72  88 SE17      29.85S
STAPLES        CLOUDY    75  68  78 SE10      29.91S
WHEATON        MOSUNNY   73  70  88 SE15      29.85S
$$
  *****  WEATHER ELSEWHERE ACROSS MINNESOTA  *****

CITY           SKY/WX    TMP DP  RH WIND       PRES   REMARKS
DULUTH         FOG       63  62  97 E12       30.00S VSB 1/2
INTRNTL FALLS  SUNNY     73  63  70 SE12      29.94F
ELY            SUNNY     73  61  64 SE8       30.00R
CLOQUET        CLOUDY    63  61  94 E8        30.00S FOG
BRAINERD       MOSUNNY   71  65  81 VRB7      29.94S
HIBBING        MOSUNNY   69  63  81 SE10      29.98F
ALEXANDRIA     CLOUDY    73  70  90 SE13G18   29.91S
SAINT CLOUD    CLOUDY    75  70  84 E10       29.92R
MINNEAPOLIS    PTSUNNY   76  71  85 SE10      29.92S
$$

  *****  WEATHER ACROSS SOUTH DAKOTA  *****

CITY           SKY/WX    TMP DP  RH WIND       PRES   REMARKS
SIOUX FALLS    SUNNY     78  70  76 SE8       29.84F
BROOKINGS      SUNNY     81  72  74 SE10      29.86S
WATERTOWN      SUNNY     81  70  69 S13       29.84R
HURON          SUNNY     79  70  74 S12       29.79S
SISSETON         N/A     74  70  87 S7        29.82S
ABERDEEN       SUNNY     82  72  71 S13       29.77R
MITCHELL       SUNNY     80  71  74 S8        29.80S
PIERRE         SUNNY     85  65  51 SE14      29.74R
MOBRIDGE       SUNNY     84  65  52 S10       29.70S
RAPID CITY     MOSUNNY   83  56  39 VRB5      29.80S
$$

  *****  SOME WEATHER IN NEARBY STATES *****

CITY           SKY/WX    TMP DP  RH WIND       PRES   REMARKS
GLASGOW MT     SUNNY     70  41  34 NW20      29.84F
GREAT FALLS MT CLOUDY    57  36  45 E16       29.94R
CHEYENNE WY    CLOUDY    76  46  34 VRB3      30.09R
SCOTTSBLUFF NE MOSUNNY   77  53  43 VRB3      29.92S
OMAHA NE       MOSUNNY   82  69  64 S13       29.87S
DES MOINES IA  PTSUNNY   81  69  67 S12       29.93R
DAVENPORT IA   SUNNY     84  72  67 SW10      29.96S
CHICAGO IL     MOSUNNY   85  70  60 W9        29.95R
EAU CLAIRE WI  CLOUDY    71  66  84 NE8       29.95S
LA CROSSE WI   SUNNY     82  71  69 E7        29.92S
$$

  *****  SOME NATIONAL WEATHER *****

CITY           SKY/WX    TMP DP  RH WIND       PRES   REMARKS
LA GUARDIA NY  MOSUNNY   87  64  46 N7        29.87F
RALEIGH NC     PTSUNNY   82  69  64 CALM      29.99S
ATLANTA GA     CLOUDY    83  71  67 NW6       30.02F
NEW ORLEANS LA TSTM      81  74  79 E10       30.01R
OKLAHOMA CITY  MOSUNNY   86  66  51 S17       30.00S
ALBUQUERQUE NM PTSUNNY   71  49  45 SW5       30.19S
SALT LAKE CITY PTSUNNY   80  40  23 S22G33    29.92S
LOS ANGELES CA CLOUDY    70  57  64 SE7       29.94R
BOISE ID       PTSUNNY   59  43  55 NW17      29.92S
SEATTLE WA     PTSUNNY   55  49  80 SW8       30.03R
$$

*** WEATHER ACROSS MANITOBA...SASKATCHEWAN AND ONTARIO ***
                ***ONTARIO***

CITY           SKY/WX    TMP DP  RH WIND       PRES   REMARKS
GERALDTON      MOSUNNY   79  59  50 SE5       30.04S
THUNDER BAY    MOSUNNY   73  57  56 VRB7      30.01F
SIOUX LOOKOUT  PTSUNNY   73  63  68 S8        29.98S
TORONTO        CLOUDY    82  70  65 VRB2      29.95F
BIG TROUT LK   SUNNY     72  64  78 SW8       29.83R
PICKLE LAKE    MOSUNNY   77  55  47 S14       29.96F
DRYDEN         SUNNY     75  61  60 S13G21    29.96R
KENORA         MOSUNNY   73  63  68 S10G17    29.91S
$$
                *** MANITOBA***

CITY           SKY/WX    TMP DP  RH WIND       PRES   REMARKS
BRANDON        CLOUDY    75  72  88 SE12      29.71
DAUPHIN        SUNNY     79  70  73 E5        29.69F
ISLAND LAKE    PTSUNNY   75  68  78 S8        29.75F
PILOT MOUND      N/A     72  68  88 SE16        N/A
THE PAS        CLOUDY    72  57  60 SW8       29.68F
THOMPSON       CLOUDY    63  59  88 E7        29.68F
WINNIPEG       CLOUDY    70  68  94 S15       29.78S FOG
LYNN LAKE      PTSUNNY   64  59  82 SE13      29.62S
CHURCHILL      PTSUNNY   54  52  94 NE7       29.77S
GILLAM         CLOUDY    66  59  77 SE5       29.76S
$$
                ***SASKATCHEWAN***

CITY           SKY/WX    TMP DP  RH WIND       PRES   REMARKS
ESTEVAN        PTSUNNY   73  63  68 NE15G21   29.70F
KINDERSLEY     LGT RAIN  50  45  81 NW5       29.92S
LLOYDMINSTER   CLOUDY    48  43  81 NW12G18   29.90R
PRINCE ALBERT  CLOUDY    57  48  72 NW10      29.82R
REGINA         PTSUNNY   64  54  68 NW18G25   29.81R
YORKTON        PTSUNNY   68  52  56 E22       29.66F


USA.gov is the U.S. government's official web portal to all federal, state and local government web resources and services.